Total_Precipitation_Accumulation
0.04 0.03 0.05 0.10 0.20 0.32 0.45 0.41 0.42 0.58 0.64 0.55 0.56 0.57 0.60 0.71 1.03 1.79 1.29 0.81 0.51 0.38 0.40 0.44 0.48 0.47 0.46 0.42 0.44 0.39 0.36 0.42 0.47 0.45 0.52 0.58 0.53 0.54 0.54 0.61 0.73 0.94 1.08 1.12 1.21 1.29 1.41 1.44 1.27
0.05 0.05 0.07 0.11 0.25 0.42 0.50 0.39 0.47 0.59 0.61 0.63 0.62 0.70 0.69 0.65 0.60 0.67 0.83 0.66 0.42 0.36 0.43 0.44 0.55 0.56 0.50 0.44 0.45 0.44 0.43 0.44 0.51 0.56 0.58 0.64 0.59 0.58 0.62 0.70 0.79 1.01 1.16 1.32 1.35 1.38 1.43 1.41 1.22
0.06 0.07 0.08 0.10 0.26 0.45 0.51 0.50 0.54 0.61 0.65 0.73 0.78 0.86 0.82 0.82 0.68 0.78 0.84 0.60 0.43 0.44 0.47 0.49 0.56 0.61 0.65 0.60 0.58 0.58 0.54 0.54 0.58 0.65 0.70 0.77 0.74 0.67 0.70 0.77 0.85 1.00 1.12 1.37 1.61 1.59 1.59 1.49 1.32
0.06 0.07 0.09 0.14 0.30 0.34 0.41 0.55 0.58 0.63 0.75 0.74 0.67 0.86 0.93 0.92 0.80 0.84 0.85 0.66 0.53 0.57 0.60 0.54 0.71 0.81 0.83 0.79 0.75 0.74 0.69 0.66 0.70 0.74 0.75 0.81 0.82 0.81 0.87 0.92 0.99 1.13 1.22 1.33 1.56 1.79 1.84 1.67 1.70
0.04 0.06 0.11 0.22 0.30 0.34 0.36 0.54 0.64 0.69 0.73 0.76 0.83 1.03 1.16 1.25 1.08 0.99 0.93 0.80 0.78 0.86 0.84 0.69 0.74 0.76 0.83 0.81 0.84 0.83 0.79 0.76 0.80 0.82 0.79 0.84 0.82 0.83 0.97 1.13 1.18 1.27 1.34 1.36 1.43 1.58 1.75 1.73 1.94
0.05 0.06 0.17 0.28 0.34 0.39 0.39 0.49 0.62 0.75 0.84 0.80 0.96 1.21 1.58 1.71 1.58 1.36 1.03 0.91 0.89 1.03 0.98 0.77 0.77 0.76 0.89 0.94 0.94 0.92 0.90 0.90 0.95 0.96 0.91 0.89 0.87 0.93 1.07 1.22 1.33 1.39 1.36 1.33 1.44 1.50 1.60 1.83 2.01
0.04 0.06 0.15 0.26 0.34 0.41 0.43 0.52 0.70 0.84 1.01 0.97 1.04 1.32 1.72 1.82 1.60 1.38 1.18 1.07 0.98 1.08 1.12 0.97 0.98 0.96 1.00 1.06 1.04 1.14 1.08 1.08 1.10 1.07 1.12 1.05 1.01 1.13 1.26 1.31 1.38 1.41 1.37 1.28 1.30 1.46 1.41 1.57 1.80
0.04 0.09 0.17 0.29 0.34 0.35 0.42 0.55 0.77 0.87 1.00 1.05 1.23 1.34 1.86 1.92 1.68 1.51 1.45 1.47 1.55 1.77 1.82 1.58 1.46 1.41 1.31 1.22 1.13 1.21 1.22 1.25 1.34 1.26 1.23 1.25 1.23 1.26 1.38 1.37 1.41 1.36 1.28 1.25 1.25 1.39 1.42 1.42 1.47
0.03 0.08 0.16 0.24 0.32 0.36 0.47 0.73 0.77 0.83 1.03 1.06 1.10 1.14 1.54 1.67 1.69 1.87 1.95 2.15 2.34 2.55 2.61 2.21 1.79 1.63 1.84 1.67 1.35 1.46 1.39 1.36 1.40 1.38 1.36 1.43 1.66 1.82 1.85 1.63 1.75 1.64 1.50 1.39 1.36 1.35 1.33 1.31 1.38
0.04 0.10 0.16 0.22 0.30 0.35 0.49 0.78 0.84 0.86 1.03 1.10 1.09 1.10 1.30 1.62 1.86 2.09 2.44 3.01 2.96 2.84 2.84 2.54 2.04 2.15 2.39 2.08 1.95 1.87 1.67 1.61 1.53 1.62 1.65 1.78 2.27 2.42 2.11 2.18 2.13 2.09 1.93 1.78 1.71 1.64 1.50 1.36 1.31
0.07 0.12 0.15 0.21 0.38 0.42 0.54 0.78 0.93 1.08 1.22 1.20 1.26 1.40 1.58 1.87 1.94 2.11 2.53 3.09 3.24 2.93 2.66 2.34 2.27 2.33 2.59 2.56 2.44 2.32 2.30 2.31 2.28 2.30 2.32 2.50 2.60 2.46 2.32 2.59 2.47 2.42 2.32 2.22 2.24 2.04 1.71 1.60 1.62
0.08 0.11 0.15 0.21 0.36 0.47 0.61 0.86 1.03 1.26 1.44 1.38 1.36 1.45 1.80 1.95 1.96 2.30 2.90 2.84 2.85 2.84 2.74 2.70 2.77 2.64 2.84 3.22 3.18 2.98 2.93 2.87 2.75 2.67 2.54 2.89 3.04 2.92 2.90 2.98 2.93 3.07 3.05 3.00 2.66 2.40 2.13 1.97 1.75
0.10 0.13 0.15 0.22 0.42 0.51 0.57 0.85 0.87 1.06 1.27 1.28 1.26 1.39 1.68 1.96 2.21 2.66 3.01 3.06 3.04 3.11 2.96 2.95 3.12 3.12 3.19 3.59 3.75 3.46 3.38 3.25 3.05 2.93 2.96 3.09 3.14 3.14 3.26 3.20 3.37 3.35 3.28 3.12 2.87 2.49 2.43 2.23 2.02
0.12 0.14 0.19 0.27 0.43 0.51 0.52 0.64 0.72 0.98 1.11 1.21 1.41 1.47 1.66 1.95 2.44 2.80 2.99 3.17 3.32 3.37 3.15 3.09 3.22 3.21 3.28 3.45 3.61 3.62 3.57 3.67 3.55 3.27 3.22 3.25 3.31 3.42 3.44 3.42 3.37 3.22 3.08 3.12 3.04 2.82 2.74 2.56 2.39
0.13 0.18 0.27 0.34 0.42 0.44 0.47 0.64 0.80 0.94 1.06 1.11 1.43 1.69 1.84 2.26 2.55 2.72 2.91 3.32 3.51 3.64 3.59 3.44 3.46 3.63 3.57 3.57 3.63 3.57 3.57 3.83 3.83 3.75 3.70 3.47 3.39 3.47 3.53 3.58 3.46 3.29 3.22 3.27 3.17 3.08 2.99 2.84 2.70
0.21 0.25 0.32 0.38 0.42 0.41 0.48 0.82 0.88 1.03 1.09 1.14 1.18 1.54 1.97 2.29 2.22 2.22 2.57 3.19 3.86 4.11 4.02 3.61 3.35 3.65 3.75 3.80 3.82 3.86 3.88 4.03 3.99 3.83 3.92 3.71 3.71 3.61 3.59 3.45 3.27 3.21 3.20 3.41 3.44 3.31 3.30 3.15 3.04
0.29 0.31 0.37 0.43 0.43 0.43 0.54 0.92 1.08 1.17 1.22 1.30 1.33 1.57 1.90 1.99 1.94 2.08 2.53 3.22 4.08 4.64 4.41 3.83 3.51 3.65 3.84 3.86 4.01 4.24 4.40 4.37 4.20 4.02 4.07 3.92 3.97 3.86 3.75 3.78 3.70 3.57 3.63 3.64 3.36 3.42 3.50 3.51 3.44
0.27 0.27 0.37 0.44 0.45 0.46 0.58 0.86 1.03 1.24 1.32 1.54 1.61 1.69 1.81 1.92 1.90 2.05 2.53 3.26 4.06 4.75 4.67 4.19 3.93 4.15 4.16 4.06 4.14 4.30 4.42 4.44 4.52 4.51 4.44 4.31 4.24 4.30 4.42 4.40 4.32 4.13 4.01 3.96 4.04 4.00 3.72 3.53 3.53
0.23 0.27 0.34 0.43 0.43 0.50 0.60 0.84 0.95 1.13 1.29 1.50 1.60 1.64 1.59 1.66 1.86 2.18 2.64 3.34 3.79 3.97 4.08 4.25 4.26 4.31 4.33 4.32 4.34 4.53 4.71 4.74 4.71 4.83 4.86 4.73 4.65 4.79 5.09 5.12 4.97 4.68 4.38 4.17 4.17 4.18 3.94 3.64 3.50
0.25 0.30 0.36 0.44 0.41 0.49 0.67 0.88 1.01 1.16 1.29 1.40 1.48 1.50 1.48 1.50 1.75 2.18 2.64 3.10 3.39 3.74 3.96 4.21 4.23 4.37 4.62 5.01 5.52 5.81 5.93 5.79 5.62 5.50 5.42 5.28 5.17 5.27 5.37 5.44 5.12 4.78 4.60 4.33 4.09 4.05 3.88 3.62 3.57
0.26 0.29 0.38 0.47 0.53 0.56 0.75 1.15 1.24 1.31 1.46 1.61 1.61 1.67 1.72 1.58 1.74 2.06 2.28 2.66 2.96 3.35 3.70 4.00 4.34 4.73 5.21 5.88 6.68 7.01 6.76 6.32 6.09 5.75 5.68 5.45 5.23 5.20 5.31 5.05 4.83 4.64 4.46 4.26 4.05 4.05 4.00 3.65 3.54
0.23 0.20 0.28 0.35 0.52 0.66 0.65 1.24 1.56 1.69 1.82 1.95 1.78 1.70 1.75 1.75 1.73 1.86 2.10 2.39 2.60 2.98 3.46 3.95 4.51 5.09 5.73 6.34 6.82 7.06 6.94 6.63 6.29 5.82 5.42 5.04 4.74 4.54 4.44 4.33 4.13 4.07 3.96 3.80 3.63 3.67 3.74 3.64 3.40
0.15 0.16 0.21 0.27 0.39 0.58 0.59 0.96 1.59 1.87 1.99 2.02 1.86 1.79 1.74 1.71 1.60 1.70 1.88 2.13 2.45 2.90 3.38 3.87 4.39 5.11 5.61 6.15 6.57 6.83 6.83 6.69 6.27 5.55 4.88 4.46 4.13 3.88 3.59 3.39 3.30 3.33 3.32 3.15 2.98 2.99 3.05 3.03 3.00
0.15 0.18 0.25 0.33 0.44 0.69 0.58 0.86 1.64 2.07 2.13 2.00 1.92 1.88 1.72 1.67 1.69 1.71 1.76 1.94 2.40 2.83 3.34 3.71 4.05 4.78 5.48 5.99 6.36 6.67 6.63 6.39 5.74 5.00 4.41 4.04 3.74 3.50 3.22 3.03 2.90 2.87 2.82 2.66 2.54 2.53 2.56 2.58 2.61
0.17 0.31 0.61 0.78 0.87 0.81 0.57 0.90 1.65 1.83 1.80 1.79 1.66 1.59 1.63 1.62 1.59 1.61 1.81 1.97 2.49 2.89 3.19 3.45 3.70 4.13 4.66 5.13 5.47 5.69 5.73 5.47 5.02 4.56 4.07 3.70 3.46 3.20 2.87 2.53 2.38 2.33 2.37 2.38 2.35 2.34 2.29 2.32 2.35
0.18 0.30 0.70 0.98 1.02 0.92 0.88 1.52 2.02 1.76 1.68 1.71 1.66 1.49 1.48 1.58 1.54 1.55 1.78 2.02 2.20 2.46 2.72 3.02 3.23 3.48 3.74 4.00 4.27 4.26 4.27 4.25 4.04 3.66 3.22 2.93 2.63 2.46 2.31 2.10 1.98 1.96 2.02 2.06 2.11 2.05 1.95 1.98 2.10
0.19 0.24 0.31 0.53 0.62 0.92 1.31 1.74 2.13 2.01 1.92 1.71 1.60 1.54 1.53 1.52 1.51 1.59 1.78 1.92 1.99 2.14 2.36 2.56 2.69 2.86 2.93 2.90 2.90 2.98 2.98 3.02 3.00 2.84 2.54 2.20 1.93 1.78 1.75 1.74 1.72 1.59 1.63 1.75 1.81 1.75 1.71 1.79 1.84
0.18 0.23 0.33 0.64 0.93 1.21 1.48 2.10 2.59 2.56 2.29 1.97 1.70 1.55 1.42 1.46 1.52 1.61 1.73 1.90 1.99 2.00 2.16 2.28 2.27 2.30 2.36 2.40 2.31 2.22 2.30 2.36 2.35 2.31 2.12 1.91 1.71 1.55 1.46 1.46 1.42 1.34 1.34 1.46 1.56 1.56 1.62 1.72 1.68
0.23 0.28 0.39 0.61 0.76 1.28 1.78 2.45 2.43 2.50 2.32 2.16 2.06 1.72 1.53 1.59 1.63 1.71 1.68 1.71 1.72 1.76 1.80 1.88 1.90 1.91 1.93 1.95 1.97 1.96 1.90 1.86 1.85 1.89 1.84 1.71 1.60 1.47 1.39 1.30 1.30 1.31 1.25 1.27 1.35 1.34 1.37 1.50 1.53
0.26 0.30 0.43 0.77 0.90 1.04 1.57 2.43 2.03 2.34 2.44 2.30 2.16 1.87 1.75 1.74 1.73 1.80 1.75 1.64 1.64 1.72 1.75 1.75 1.76 1.73 1.74 1.72 1.76 1.82 1.69 1.61 1.60 1.62 1.60 1.47 1.43 1.39 1.31 1.24 1.22 1.20 1.18 1.17 1.17 1.14 1.16 1.27 1.30